Simultaneous Nadir Overpasses (SNOs) Predictions

Prediction of SNOs between GOES-17 and NPP Satellite Orbit:

Table of predicted SNOs for the next 14.0 days since TLE Epoch: 11/9/2024
Index Date Time (GOES-17) GOES-17 Lat,Lon NPP Lat,Lon Distance(km) Time Diff (sec)
1 11/09/2024 08:17:09 0.00,-104.70 -0.26,-103.46 141.17 80
2 11/10/2024 20:39:04 0.00,-104.69 -0.94,-108.75 463.92 80
3 11/11/2024 20:23:00 0.00,-104.69 0.12,-104.23 53.50 80
4 11/14/2024 08:26:01 0.00,-104.72 0.05,-104.95 26.71 80
5 11/15/2024 08:04:35 -0.00,-104.72 -0.97,-100.42 490.12 80
6 11/16/2024 20:26:30 0.00,-104.70 -0.25,-105.71 115.38 80
7 11/17/2024 20:10:24 0.00,-104.70 0.78,-101.18 401.90 80
8 11/19/2024 08:32:10 0.00,-104.73 0.37,-106.44 194.97 80
9 11/20/2024 08:10:44 0.00,-104.73 -0.61,-101.90 322.07 80
10 11/21/2024 20:32:38 -0.00,-104.71 -0.58,-107.19 283.58 80
11 11/22/2024 20:16:33 -0.00,-104.71 0.47,-102.66 234.25 80
